AAL1167 MMSD-KLAX

Flight info

Callsign AAL1167
Flight time 2h 14m
Altitude 36000
Route ANEGO1A ANEGO UL312 TAGMO UT50 ASUTA DCT AMMOR OLAAA2
Aircraft A321/M-SDE3FGHIRWY/LB1

Departure

Time 2026-04-22 01:19
Airport Los Cabos International Airport (MMSD)

Arrival

Time 2026-04-22 03:33
Airport Los Angeles International Airport (KLAX)
Time Latitude Longitude Altitude Speed Heading
2026-04-22 00:47 23.15821 -109.71797 368 ft 0 kts 84°
2026-04-22 01:11 23.15821 -109.71805 365 ft 4 kts 84°
2026-04-22 01:11 23.15818 -109.71833 365 ft 3 kts 84°
2026-04-22 01:12 23.15813 -109.71856 369 ft 4 kts 29°
2026-04-22 01:12 23.15791 -109.71856 365 ft 4 kts 341°
2026-04-22 01:12 23.15773 -109.71850 365 ft 0 kts 354°
2026-04-22 01:14 23.15783 -109.71851 365 ft 7 kts 354°
2026-04-22 01:14 23.15855 -109.71885 368 ft 11 kts 283°
2026-04-22 01:15 23.15891 -109.71948 366 ft 9 kts 338°
2026-04-22 01:15 23.15957 -109.71955 369 ft 10 kts 353°
2026-04-22 01:15 23.16039 -109.71964 371 ft 17 kts 354°
2026-04-22 01:15 23.16173 -109.71978 371 ft 19 kts 354°
2026-04-22 01:16 23.16294 -109.71993 378 ft 16 kts 353°
2026-04-22 01:16 23.16389 -109.72004 383 ft 12 kts 354°
2026-04-22 01:16 23.16486 -109.72015 388 ft 18 kts 353°
2026-04-22 01:16 23.16603 -109.72036 392 ft 14 kts 329°
2026-04-22 01:17 23.16611 -109.72122 392 ft 12 kts 264°
2026-04-22 01:17 23.16568 -109.72199 392 ft 12 kts 216°
2026-04-22 01:17 23.16483 -109.72220 390 ft 8 kts 175°
2026-04-22 01:17 23.16467 -109.72218 390 ft 0 kts 174°
2026-04-22 01:18 23.16425 -109.72213 389 ft 30 kts 174°
2026-04-22 01:18 23.15956 -109.72160 379 ft 103 kts 174°
2026-04-22 01:18 23.15038 -109.72056 353 ft 160 kts 174°
2026-04-22 01:18 23.13888 -109.71923 853 ft 164 kts 169°
2026-04-22 01:19 23.12764 -109.71719 1486 ft 167 kts 168°
2026-04-22 01:19 23.11570 -109.71466 1974 ft 183 kts 168°
2026-04-22 01:19 23.10270 -109.71251 2462 ft 194 kts 171°
2026-04-22 01:19 23.08867 -109.71055 2661 ft 214 kts 176°
2026-04-22 01:20 23.07310 -109.70942 2786 ft 235 kts 177°
2026-04-22 01:20 23.05587 -109.70828 2949 ft 260 kts 178°
2026-04-22 01:20 23.03787 -109.71112 3447 ft 266 kts 208°
2026-04-22 01:20 23.02445 -109.72453 4137 ft 266 kts 242°
2026-04-22 01:21 23.02043 -109.74401 4825 ft 271 kts 275°
2026-04-22 01:21 23.02671 -109.76335 5467 ft 277 kts 300°
2026-04-22 01:21 23.03813 -109.78040 6161 ft 281 kts 308°
2026-04-22 01:21 23.05087 -109.79629 6827 ft 284 kts 309°
2026-04-22 01:22 23.06392 -109.81248 7494 ft 285 kts 307°
2026-04-22 01:22 23.07658 -109.82911 8208 ft 286 kts 305°
2026-04-22 01:22 23.08878 -109.84619 8941 ft 286 kts 303°
2026-04-22 01:22 23.10065 -109.86359 9668 ft 287 kts 302°
2026-04-22 01:23 23.11234 -109.88125 10192 ft 293 kts 301°
2026-04-22 01:23 23.12593 -109.89891 10306 ft 318 kts 312°
2026-04-22 01:23 23.14403 -109.91385 10665 ft 333 kts 325°
2026-04-22 01:23 23.16399 -109.92699 11191 ft 337 kts 325°
2026-04-22 01:24 23.18408 -109.94027 11777 ft 340 kts 325°
2026-04-22 01:24 23.20437 -109.95373 12368 ft 343 kts 325°
2026-04-22 01:24 23.22485 -109.96734 12970 ft 346 kts 325°
2026-04-22 01:24 23.24550 -109.98109 13565 ft 349 kts 325°
2026-04-22 01:25 23.26603 -109.99475 14096 ft 352 kts 325°
2026-04-22 01:25 23.28727 -110.00888 14724 ft 354 kts 325°
2026-04-22 01:25 23.30834 -110.02291 15359 ft 356 kts 325°
2026-04-22 01:25 23.32926 -110.03682 15917 ft 358 kts 325°
2026-04-22 01:26 23.35057 -110.05099 16456 ft 360 kts 326°
2026-04-22 01:26 23.37198 -110.06521 16999 ft 361 kts 326°
2026-04-22 01:26 23.39350 -110.07954 17563 ft 363 kts 326°
2026-04-22 01:26 23.41513 -110.09396 18099 ft 365 kts 326°
2026-04-22 01:27 23.43683 -110.10842 18592 ft 367 kts 326°
2026-04-22 01:27 23.45869 -110.12298 19052 ft 369 kts 326°
2026-04-22 01:27 23.48060 -110.13757 19517 ft 371 kts 325°
2026-04-22 01:27 23.50268 -110.15229 19964 ft 373 kts 325°
2026-04-22 01:28 23.52486 -110.16713 20422 ft 375 kts 324°
2026-04-22 01:28 23.54556 -110.18425 20866 ft 373 kts 314°
2026-04-22 01:28 23.56404 -110.20411 21326 ft 374 kts 312°
2026-04-22 01:28 23.58251 -110.22415 21774 ft 376 kts 312°
2026-04-22 01:29 23.60111 -110.24432 22228 ft 378 kts 312°
2026-04-22 01:29 23.61980 -110.26457 22652 ft 380 kts 312°
2026-04-22 01:29 23.63864 -110.28495 23095 ft 382 kts 312°
2026-04-22 01:29 23.65757 -110.30542 23509 ft 385 kts 312°
2026-04-22 01:30 23.67666 -110.32606 23891 ft 387 kts 312°
2026-04-22 01:30 23.69580 -110.34675 24277 ft 388 kts 312°
2026-04-22 01:30 23.71505 -110.36756 24658 ft 389 kts 312°
2026-04-22 01:30 23.73429 -110.38840 25034 ft 390 kts 312°
2026-04-22 01:31 23.75357 -110.40931 25402 ft 392 kts 312°
2026-04-22 01:31 23.77293 -110.43029 25773 ft 393 kts 312°
2026-04-22 01:31 23.79233 -110.45133 26144 ft 394 kts 312°
2026-04-22 01:31 23.81177 -110.47244 26503 ft 395 kts 312°
2026-04-22 01:32 23.83126 -110.49366 26872 ft 396 kts 312°
2026-04-22 01:32 23.85078 -110.51491 27234 ft 397 kts 312°
2026-04-22 01:32 23.87038 -110.53621 27587 ft 398 kts 312°
2026-04-22 01:32 23.89004 -110.55758 27939 ft 399 kts 312°
2026-04-22 01:33 23.91013 -110.57863 28300 ft 401 kts 314°
2026-04-22 01:33 23.93110 -110.59886 28641 ft 404 kts 316°
2026-04-22 01:33 23.95271 -110.61863 28992 ft 405 kts 317°
2026-04-22 01:33 23.97456 -110.63820 29321 ft 407 kts 317°
2026-04-22 01:34 23.99617 -110.65758 29657 ft 408 kts 317°
2026-04-22 01:34 24.01804 -110.67742 29991 ft 409 kts 316°
2026-04-22 01:34 24.03982 -110.69744 30283 ft 410 kts 316°
2026-04-22 01:34 24.06159 -110.71770 30536 ft 411 kts 316°
2026-04-22 01:35 24.08339 -110.73810 30797 ft 413 kts 316°
2026-04-22 01:35 24.10525 -110.75854 31051 ft 414 kts 316°
2026-04-22 01:35 24.12724 -110.77909 31296 ft 416 kts 316°
2026-04-22 01:35 24.14928 -110.79966 31543 ft 417 kts 316°
2026-04-22 01:36 24.17139 -110.82027 31862 ft 417 kts 315°
2026-04-22 01:36 24.19344 -110.84081 32231 ft 415 kts 315°
2026-04-22 01:36 24.21546 -110.86134 32590 ft 414 kts 315°
2026-04-22 01:36 24.23736 -110.88180 32934 ft 413 kts 315°
2026-04-22 01:37 24.25921 -110.90224 33266 ft 412 kts 315°
2026-04-22 01:37 24.28102 -110.92263 33592 ft 411 kts 315°
2026-04-22 01:37 24.30281 -110.94296 33919 ft 411 kts 315°
2026-04-22 01:37 24.32452 -110.96325 34215 ft 410 kts 315°
2026-04-22 01:38 24.34624 -110.98356 34498 ft 409 kts 315°
2026-04-22 01:38 24.36782 -111.00378 34774 ft 408 kts 315°
2026-04-22 01:38 24.38942 -111.02401 35063 ft 407 kts 315°
2026-04-22 01:38 24.41092 -111.04415 35343 ft 407 kts 315°
2026-04-22 01:39 24.43240 -111.06428 35647 ft 406 kts 315°
2026-04-22 01:39 24.45384 -111.08437 35916 ft 405 kts 315°
2026-04-22 01:39 24.49635 -111.12424 36038 ft 396 kts 315°
2026-04-22 01:40 24.53770 -111.16312 36043 ft 393 kts 315°
2026-04-22 01:40 24.57937 -111.20236 36043 ft 392 kts 315°
2026-04-22 01:41 24.62075 -111.24140 36042 ft 394 kts 315°
2026-04-22 01:41 24.66267 -111.28097 36048 ft 406 kts 315°
2026-04-22 01:42 24.70607 -111.32190 36044 ft 414 kts 315°
2026-04-22 01:42 24.74995 -111.36327 36046 ft 415 kts 315°
2026-04-22 01:43 24.79387 -111.40472 36046 ft 415 kts 315°
2026-04-22 01:43 24.83778 -111.44613 36049 ft 415 kts 315°
2026-04-22 01:44 24.88162 -111.48760 36058 ft 416 kts 315°
2026-04-22 01:44 24.92521 -111.52892 36063 ft 416 kts 315°
2026-04-22 01:45 24.96907 -111.57058 36085 ft 416 kts 315°
2026-04-22 01:45 25.01293 -111.61228 36082 ft 416 kts 315°
2026-04-22 01:46 25.05681 -111.65397 36080 ft 416 kts 315°
2026-04-22 01:46 25.10060 -111.69566 36079 ft 416 kts 315°
2026-04-22 01:47 25.14436 -111.73736 36077 ft 415 kts 315°
2026-04-22 01:47 25.18815 -111.77908 36077 ft 415 kts 315°
2026-04-22 01:48 25.23190 -111.82074 36090 ft 415 kts 315°
2026-04-22 01:48 25.27527 -111.86215 36089 ft 414 kts 315°
2026-04-22 01:49 25.32306 -111.89802 36085 ft 423 kts 331°
2026-04-22 01:49 25.37733 -111.92372 36084 ft 424 kts 331°
2026-04-22 01:50 25.43155 -111.94950 36086 ft 424 kts 331°
2026-04-22 01:50 25.48575 -111.97538 36101 ft 424 kts 330°
2026-04-22 01:51 25.53989 -112.00123 36090 ft 424 kts 331°
2026-04-22 01:51 25.59413 -112.02705 36092 ft 424 kts 330°
2026-04-22 01:52 25.64794 -112.05277 36092 ft 424 kts 330°
2026-04-22 01:52 25.70214 -112.07872 36081 ft 424 kts 330°
2026-04-22 01:53 25.75631 -112.10466 36089 ft 424 kts 330°
2026-04-22 01:53 25.81052 -112.13064 36077 ft 424 kts 330°
2026-04-22 01:54 25.86465 -112.15658 36082 ft 423 kts 330°
2026-04-22 01:54 25.91867 -112.18249 36090 ft 422 kts 330°
2026-04-22 01:55 25.97259 -112.20845 36080 ft 422 kts 330°
2026-04-22 01:55 26.02645 -112.23438 36091 ft 422 kts 330°
2026-04-22 01:56 26.08029 -112.26031 36086 ft 422 kts 330°
2026-04-22 01:56 26.13418 -112.28634 36078 ft 422 kts 330°
2026-04-22 01:57 26.18763 -112.31215 36077 ft 422 kts 330°
2026-04-22 01:57 26.24143 -112.33818 36083 ft 421 kts 330°
2026-04-22 01:58 26.29526 -112.36422 36086 ft 422 kts 330°
2026-04-22 01:58 26.34915 -112.39027 36080 ft 422 kts 330°
2026-04-22 01:59 26.40297 -112.41636 36072 ft 422 kts 330°
2026-04-22 01:59 26.44770 -112.43804 36069 ft 422 kts 330°
2026-04-22 02:00 26.50148 -112.46410 36063 ft 420 kts 330°
2026-04-22 02:00 26.55514 -112.49020 36084 ft 420 kts 330°
2026-04-22 02:01 26.60869 -112.51624 36076 ft 419 kts 330°
2026-04-22 02:01 26.66187 -112.54214 36074 ft 420 kts 330°
2026-04-22 02:02 26.71536 -112.56822 36066 ft 419 kts 330°
2026-04-22 02:02 26.76884 -112.59432 36062 ft 419 kts 330°
2026-04-22 02:03 26.82234 -112.62049 36079 ft 420 kts 329°
2026-04-22 02:03 26.87587 -112.64664 36067 ft 420 kts 329°
2026-04-22 02:04 26.95617 -112.68603 36056 ft 420 kts 329°
2026-04-22 02:05 27.00980 -112.71229 36061 ft 421 kts 329°
2026-04-22 02:05 27.06344 -112.73864 36076 ft 421 kts 330°
2026-04-22 02:06 27.11708 -112.76505 36067 ft 421 kts 329°
2026-04-22 02:06 27.17046 -112.79129 36069 ft 421 kts 329°
2026-04-22 02:07 27.22412 -112.81764 36071 ft 421 kts 329°
2026-04-22 02:07 27.27774 -112.84397 36069 ft 420 kts 329°
2026-04-22 02:08 27.33128 -112.87041 36076 ft 420 kts 329°
2026-04-22 02:08 27.38487 -112.89695 36069 ft 421 kts 329°
2026-04-22 02:09 27.43846 -112.92346 36065 ft 421 kts 329°
2026-04-22 02:09 27.49214 -112.95000 36062 ft 422 kts 329°
2026-04-22 02:10 27.54588 -112.97669 36054 ft 422 kts 329°
2026-04-22 02:10 27.59965 -113.00333 36075 ft 422 kts 329°
2026-04-22 02:11 27.65316 -113.02991 36071 ft 423 kts 329°
2026-04-22 02:11 27.70698 -113.05664 36062 ft 423 kts 329°
2026-04-22 02:12 27.76078 -113.08345 36066 ft 423 kts 329°
2026-04-22 02:12 27.81466 -113.11024 36113 ft 423 kts 329°
2026-04-22 02:13 27.86820 -113.13695 36054 ft 420 kts 328°
2026-04-22 02:13 27.92179 -113.16369 36056 ft 421 kts 328°
2026-04-22 02:14 27.97545 -113.19060 36054 ft 422 kts 328°
2026-04-22 02:14 28.02921 -113.21747 36065 ft 422 kts 328°
2026-04-22 02:15 28.08303 -113.24438 36083 ft 423 kts 328°
2026-04-22 02:15 28.13654 -113.27127 36075 ft 424 kts 328°
2026-04-22 02:16 28.19051 -113.29837 36067 ft 424 kts 328°
2026-04-22 02:16 28.24453 -113.32548 36059 ft 425 kts 328°
2026-04-22 02:17 28.29857 -113.35266 36057 ft 425 kts 328°
2026-04-22 02:17 28.35259 -113.37990 36079 ft 425 kts 328°
2026-04-22 02:18 28.40675 -113.40719 36056 ft 426 kts 328°
2026-04-22 02:18 28.46097 -113.43454 36062 ft 426 kts 328°
2026-04-22 02:19 28.51509 -113.46191 36064 ft 425 kts 328°
2026-04-22 02:19 28.56911 -113.48925 36055 ft 424 kts 327°
2026-04-22 02:20 28.62309 -113.51664 36073 ft 425 kts 328°
2026-04-22 02:20 28.67700 -113.54402 36070 ft 424 kts 328°
2026-04-22 02:21 28.73095 -113.57139 36074 ft 424 kts 328°
2026-04-22 02:21 28.78453 -113.59856 36068 ft 425 kts 328°
2026-04-22 02:22 28.83876 -113.62611 36102 ft 426 kts 328°
2026-04-22 02:22 28.89298 -113.65379 36087 ft 426 kts 328°
2026-04-22 02:23 28.94708 -113.68143 36072 ft 427 kts 328°
2026-04-22 02:23 29.00132 -113.70910 36066 ft 427 kts 328°
2026-04-22 02:24 29.05560 -113.73678 36090 ft 427 kts 328°
2026-04-22 02:24 29.10986 -113.76464 36085 ft 427 kts 328°
2026-04-22 02:25 29.16416 -113.79243 36078 ft 428 kts 328°
2026-04-22 02:25 29.21853 -113.82032 36057 ft 428 kts 328°
2026-04-22 02:26 29.27294 -113.84828 36048 ft 428 kts 328°
2026-04-22 02:26 29.32690 -113.87602 36038 ft 429 kts 328°
2026-04-22 02:27 29.38140 -113.90402 36044 ft 429 kts 328°
2026-04-22 02:27 29.43630 -113.93236 36036 ft 431 kts 328°
2026-04-22 02:28 29.49065 -113.96042 36022 ft 432 kts 328°
2026-04-22 02:28 29.54541 -113.98872 36047 ft 432 kts 328°
2026-04-22 02:29 29.60024 -114.01707 36036 ft 432 kts 328°
2026-04-22 02:29 29.65520 -114.04553 36032 ft 433 kts 328°
2026-04-22 02:30 29.71016 -114.07390 36001 ft 433 kts 328°
2026-04-22 02:30 29.76501 -114.10244 36006 ft 433 kts 328°
2026-04-22 02:31 29.81995 -114.13110 36012 ft 434 kts 328°
2026-04-22 02:31 29.87499 -114.15974 36003 ft 434 kts 328°
2026-04-22 02:32 29.93010 -114.18843 36001 ft 435 kts 328°
2026-04-22 02:32 29.98520 -114.21714 35989 ft 435 kts 328°
2026-04-22 02:33 30.04043 -114.24590 36009 ft 435 kts 328°
2026-04-22 02:33 30.09533 -114.27464 36000 ft 436 kts 328°
2026-04-22 02:34 30.15055 -114.30366 35987 ft 436 kts 328°
2026-04-22 02:34 30.20592 -114.33263 35985 ft 437 kts 328°
2026-04-22 02:35 30.26132 -114.36167 35996 ft 437 kts 328°
2026-04-22 02:35 30.31676 -114.39080 35986 ft 438 kts 328°
2026-04-22 02:36 30.37218 -114.41999 35978 ft 438 kts 328°
2026-04-22 02:36 30.42765 -114.44926 35977 ft 438 kts 328°
2026-04-22 02:37 30.48319 -114.47854 35995 ft 439 kts 328°
2026-04-22 02:37 30.53845 -114.50769 35980 ft 440 kts 328°
2026-04-22 02:38 30.59417 -114.53714 35976 ft 440 kts 328°
2026-04-22 02:38 30.64997 -114.56670 35971 ft 441 kts 328°
2026-04-22 02:39 30.70576 -114.59628 35965 ft 441 kts 328°
2026-04-22 02:39 30.76168 -114.62592 35980 ft 442 kts 328°
2026-04-22 02:40 30.81772 -114.65569 35977 ft 443 kts 328°
2026-04-22 02:40 30.87380 -114.68556 35976 ft 443 kts 328°
2026-04-22 02:41 30.92996 -114.71554 35969 ft 443 kts 328°
2026-04-22 02:41 30.98573 -114.74529 35969 ft 444 kts 328°
2026-04-22 02:42 31.04183 -114.77525 35967 ft 443 kts 328°
2026-04-22 02:42 31.09797 -114.80536 35967 ft 444 kts 328°
2026-04-22 02:43 31.15415 -114.83541 35972 ft 444 kts 328°
2026-04-22 02:43 31.21034 -114.86548 35977 ft 444 kts 328°
2026-04-22 02:44 31.26657 -114.89570 35968 ft 445 kts 328°
2026-04-22 02:44 31.32239 -114.92578 35966 ft 445 kts 328°
2026-04-22 02:45 31.37862 -114.95608 35962 ft 445 kts 328°
2026-04-22 02:45 31.43486 -114.98637 35975 ft 445 kts 328°
2026-04-22 02:46 31.49120 -115.01671 35987 ft 445 kts 328°
2026-04-22 02:46 31.54779 -115.04738 35982 ft 449 kts 328°
2026-04-22 02:47 31.60445 -115.07803 35982 ft 448 kts 328°
2026-04-22 02:47 31.66103 -115.10861 35975 ft 447 kts 329°
2026-04-22 02:48 31.70801 -115.13413 35968 ft 447 kts 328°
2026-04-22 02:48 31.76447 -115.16487 35970 ft 447 kts 329°
2026-04-22 02:49 31.82100 -115.19558 35965 ft 448 kts 329°
2026-04-22 02:49 31.87751 -115.22638 35968 ft 448 kts 329°
2026-04-22 02:50 31.94318 -115.26231 35953 ft 448 kts 329°
2026-04-22 02:50 31.99062 -115.28821 35953 ft 449 kts 329°
2026-04-22 02:51 32.04725 -115.31916 35953 ft 449 kts 329°
2026-04-22 02:51 32.10355 -115.35000 35967 ft 449 kts 328°
2026-04-22 02:52 32.16024 -115.38106 35956 ft 449 kts 328°
2026-04-22 02:52 32.21694 -115.41225 35970 ft 450 kts 328°
2026-04-22 02:53 32.27370 -115.44351 35962 ft 450 kts 328°
2026-04-22 02:53 32.33041 -115.47478 35971 ft 450 kts 328°
2026-04-22 02:54 32.38718 -115.50609 35960 ft 450 kts 328°
2026-04-22 02:54 32.44395 -115.53742 35974 ft 450 kts 328°
2026-04-22 02:55 32.50073 -115.56876 35977 ft 450 kts 328°
2026-04-22 02:55 32.55712 -115.59999 35998 ft 451 kts 328°
2026-04-22 02:56 32.61389 -115.63186 35999 ft 449 kts 324°
2026-04-22 02:56 32.66177 -115.67618 36044 ft 429 kts 304°
2026-04-22 02:57 32.69507 -115.73352 36034 ft 420 kts 296°
2026-04-22 02:57 32.72604 -115.79241 36014 ft 420 kts 296°
2026-04-22 02:57 32.74152 -115.82178 35641 ft 417 kts 296°
2026-04-22 02:58 32.75678 -115.85064 35495 ft 406 kts 296°
2026-04-22 02:58 32.77161 -115.87860 35402 ft 394 kts 295°
2026-04-22 02:58 32.78598 -115.90573 35317 ft 382 kts 295°
2026-04-22 02:58 32.79996 -115.93231 34987 ft 377 kts 295°
2026-04-22 02:59 32.81370 -115.95874 34602 ft 374 kts 294°
2026-04-22 02:59 32.82691 -115.98485 34120 ft 372 kts 293°
2026-04-22 02:59 32.84005 -116.01120 33660 ft 369 kts 293°
2026-04-22 02:59 32.85302 -116.03730 33262 ft 364 kts 292°
2026-04-22 03:00 32.86578 -116.06306 32852 ft 360 kts 292°
2026-04-22 03:00 32.87847 -116.08858 32438 ft 357 kts 292°
2026-04-22 03:00 32.89108 -116.11386 32033 ft 354 kts 292°
2026-04-22 03:00 32.90360 -116.13896 31630 ft 351 kts 292°
2026-04-22 03:01 32.91604 -116.16385 31229 ft 348 kts 292°
2026-04-22 03:01 32.92836 -116.18859 30830 ft 346 kts 292°
2026-04-22 03:01 32.94061 -116.21321 30455 ft 344 kts 292°
2026-04-22 03:01 32.95278 -116.23764 30047 ft 343 kts 292°
2026-04-22 03:02 32.96492 -116.26200 29613 ft 340 kts 293°
2026-04-22 03:02 32.97692 -116.28604 29296 ft 335 kts 293°
2026-04-22 03:02 32.98876 -116.30981 28936 ft 332 kts 293°
2026-04-22 03:02 33.00034 -116.33311 28593 ft 330 kts 293°
2026-04-22 03:03 33.01197 -116.35657 28262 ft 329 kts 293°
2026-04-22 03:03 33.02359 -116.37996 27901 ft 327 kts 293°
2026-04-22 03:03 33.03517 -116.40321 27599 ft 326 kts 293°
2026-04-22 03:03 33.04655 -116.42645 27260 ft 322 kts 290°
2026-04-22 03:04 33.05588 -116.45044 26937 ft 318 kts 287°
2026-04-22 03:04 33.06483 -116.47444 26615 ft 316 kts 288°
2026-04-22 03:04 33.07382 -116.49841 26299 ft 316 kts 288°
2026-04-22 03:04 33.08278 -116.52225 25985 ft 315 kts 288°
2026-04-22 03:05 33.09171 -116.54611 25653 ft 314 kts 288°
2026-04-22 03:05 33.10060 -116.56988 25343 ft 313 kts 288°
2026-04-22 03:05 33.10941 -116.59346 25006 ft 310 kts 288°
2026-04-22 03:05 33.11814 -116.61688 24669 ft 307 kts 288°
2026-04-22 03:06 33.12678 -116.64007 24358 ft 306 kts 288°
2026-04-22 03:06 33.13386 -116.66372 24031 ft 300 kts 279°
2026-04-22 03:06 33.13785 -116.68878 23648 ft 316 kts 276°
2026-04-22 03:06 33.14158 -116.71485 23204 ft 320 kts 276°
2026-04-22 03:07 33.14541 -116.74106 22812 ft 321 kts 276°
2026-04-22 03:07 33.14921 -116.76687 22436 ft 319 kts 276°
2026-04-22 03:07 33.15306 -116.79289 22044 ft 317 kts 276°
2026-04-22 03:07 33.15577 -116.81119 21772 ft 317 kts 276°
2026-04-22 03:08 33.15911 -116.83340 21376 ft 317 kts 276°
2026-04-22 03:08 33.16291 -116.85918 21044 ft 314 kts 276°
2026-04-22 03:09 33.16666 -116.88476 20690 ft 312 kts 276°
2026-04-22 03:09 33.17038 -116.91012 20298 ft 309 kts 276°
2026-04-22 03:09 33.17403 -116.93528 19929 ft 306 kts 276°
2026-04-22 03:09 33.17765 -116.96030 19541 ft 304 kts 276°
2026-04-22 03:10 33.18126 -116.98512 19160 ft 303 kts 276°
2026-04-22 03:10 33.18483 -117.00981 18811 ft 301 kts 276°
2026-04-22 03:10 33.18837 -117.03440 18438 ft 300 kts 276°
2026-04-22 03:10 33.19191 -117.05890 18030 ft 299 kts 276°
2026-04-22 03:11 33.19543 -117.08331 17662 ft 298 kts 276°
2026-04-22 03:11 33.19893 -117.10766 17190 ft 297 kts 276°
2026-04-22 03:11 33.20239 -117.13185 16820 ft 294 kts 275°
2026-04-22 03:11 33.20582 -117.15587 16466 ft 293 kts 276°
2026-04-22 03:12 33.20924 -117.17978 16104 ft 291 kts 275°
2026-04-22 03:12 33.21603 -117.22730 15401 ft 289 kts 276°
2026-04-22 03:12 33.21942 -117.25091 15039 ft 288 kts 276°
2026-04-22 03:13 33.22279 -117.27446 14694 ft 287 kts 276°
2026-04-22 03:13 33.22616 -117.29790 14344 ft 286 kts 276°
2026-04-22 03:13 33.22943 -117.32093 14000 ft 284 kts 276°
2026-04-22 03:13 33.23285 -117.34410 13878 ft 283 kts 276°
2026-04-22 03:14 33.23644 -117.36732 13776 ft 285 kts 277°
2026-04-22 03:14 33.24009 -117.39056 13671 ft 285 kts 277°
2026-04-22 03:14 33.24379 -117.41378 13562 ft 284 kts 277°
2026-04-22 03:14 33.24747 -117.43698 13452 ft 284 kts 277°
2026-04-22 03:15 33.25107 -117.46015 13346 ft 284 kts 277°
2026-04-22 03:15 33.25466 -117.48327 13239 ft 283 kts 277°
2026-04-22 03:15 33.25829 -117.50646 13127 ft 283 kts 277°
2026-04-22 03:15 33.26295 -117.52937 13018 ft 286 kts 286°
2026-04-22 03:16 33.27201 -117.55078 12864 ft 291 kts 297°
2026-04-22 03:16 33.28304 -117.57106 12666 ft 290 kts 297°
2026-04-22 03:16 33.29398 -117.59126 12479 ft 289 kts 297°
2026-04-22 03:16 33.30488 -117.61149 12299 ft 289 kts 297°
2026-04-22 03:17 33.31561 -117.63145 12120 ft 289 kts 297°
2026-04-22 03:17 33.32644 -117.65160 11933 ft 288 kts 297°
2026-04-22 03:17 33.33728 -117.67175 11759 ft 287 kts 297°
2026-04-22 03:17 33.34806 -117.69182 11577 ft 287 kts 297°
2026-04-22 03:18 33.35885 -117.71188 11398 ft 286 kts 297°
2026-04-22 03:18 33.36962 -117.73187 11217 ft 286 kts 297°
2026-04-22 03:18 33.38038 -117.75188 11032 ft 286 kts 297°
2026-04-22 03:18 33.39109 -117.77185 10857 ft 285 kts 297°
2026-04-22 03:19 33.40178 -117.79181 10663 ft 284 kts 297°
2026-04-22 03:19 33.41243 -117.81170 10491 ft 284 kts 297°
2026-04-22 03:19 33.42306 -117.83156 10310 ft 283 kts 297°
2026-04-22 03:19 33.43367 -117.85140 10155 ft 282 kts 296°
2026-04-22 03:20 33.44415 -117.87098 9904 ft 276 kts 297°
2026-04-22 03:20 33.45432 -117.88999 9764 ft 274 kts 297°
2026-04-22 03:20 33.46462 -117.90914 9605 ft 274 kts 299°
2026-04-22 03:20 33.47747 -117.92635 9423 ft 281 kts 313°
2026-04-22 03:21 33.49385 -117.93946 9247 ft 288 kts 328°
2026-04-22 03:21 33.51269 -117.94819 9069 ft 290 kts 334°
2026-04-22 03:21 33.53170 -117.95634 8881 ft 290 kts 334°
2026-04-22 03:21 33.55063 -117.96454 8698 ft 288 kts 334°
2026-04-22 03:22 33.56947 -117.97273 8518 ft 287 kts 334°
2026-04-22 03:22 33.58827 -117.98092 8335 ft 287 kts 334°
2026-04-22 03:22 33.60698 -117.98909 8156 ft 286 kts 335°
2026-04-22 03:22 33.62538 -117.99708 7977 ft 285 kts 335°
2026-04-22 03:23 33.64422 -118.00456 7744 ft 284 kts 338°
2026-04-22 03:23 33.66307 -118.01147 7502 ft 283 kts 339°
2026-04-22 03:23 33.68190 -118.01820 7266 ft 281 kts 339°
2026-04-22 03:23 33.70064 -118.02485 7053 ft 280 kts 339°
2026-04-22 03:24 33.71925 -118.03149 6987 ft 279 kts 339°
2026-04-22 03:24 33.73776 -118.03815 6989 ft 272 kts 339°
2026-04-22 03:24 33.75533 -118.04447 6963 ft 256 kts 339°
2026-04-22 03:24 33.77192 -118.05046 6957 ft 241 kts 338°
2026-04-22 03:25 33.78776 -118.05638 6923 ft 237 kts 336°
2026-04-22 03:25 33.80329 -118.06332 6617 ft 237 kts 334°
2026-04-22 03:25 33.81848 -118.07070 6318 ft 234 kts 334°
2026-04-22 03:25 33.83348 -118.07813 6028 ft 231 kts 334°
2026-04-22 03:26 33.84822 -118.08539 5759 ft 227 kts 334°
2026-04-22 03:26 33.86279 -118.09253 5492 ft 225 kts 334°
2026-04-22 03:26 33.87703 -118.09948 5233 ft 223 kts 335°
2026-04-22 03:26 33.89160 -118.10574 5020 ft 223 kts 343°
2026-04-22 03:27 33.90707 -118.10782 4774 ft 225 kts 353°
2026-04-22 03:27 33.92259 -118.10959 4552 ft 222 kts 343°
2026-04-22 03:27 33.93647 -118.11671 4328 ft 213 kts 323°
2026-04-22 03:27 33.94791 -118.12734 4115 ft 202 kts 317°
2026-04-22 03:28 33.95630 -118.13997 3898 ft 190 kts 294°
2026-04-22 03:28 33.95962 -118.15506 3750 ft 187 kts 274°
2026-04-22 03:28 33.95879 -118.17060 3566 ft 186 kts 264°
2026-04-22 03:28 33.95724 -118.18590 3338 ft 183 kts 264°
2026-04-22 03:29 33.95572 -118.20100 3097 ft 180 kts 264°
2026-04-22 03:29 33.95422 -118.21599 2857 ft 180 kts 264°
2026-04-22 03:29 33.95271 -118.23096 2619 ft 180 kts 264°
2026-04-22 03:29 33.95124 -118.24556 2390 ft 169 kts 264°
2026-04-22 03:30 33.94988 -118.25904 2155 ft 156 kts 264°
2026-04-22 03:30 33.94863 -118.27144 1953 ft 144 kts 264°
2026-04-22 03:30 33.94746 -118.28304 1758 ft 138 kts 265°
2026-04-22 03:30 33.94630 -118.29456 1578 ft 137 kts 265°
2026-04-22 03:31 33.94515 -118.30588 1387 ft 136 kts 264°
2026-04-22 03:31 33.94403 -118.31700 1215 ft 136 kts 263°
2026-04-22 03:31 33.94289 -118.32824 1031 ft 135 kts 262°
2026-04-22 03:31 33.94174 -118.33957 856 ft 133 kts 263°
2026-04-22 03:32 33.94063 -118.35051 682 ft 134 kts 264°
2026-04-22 03:32 33.93945 -118.36186 493 ft 135 kts 264°
2026-04-22 03:32 33.93837 -118.37296 304 ft 132 kts 262°
2026-04-22 03:32 33.93727 -118.38394 123 ft 132 kts 262°
2026-04-22 03:33 33.93620 -118.39398 93 ft 102 kts 263°
2026-04-22 03:33 33.93553 -118.40043 96 ft 53 kts 263°
2026-04-22 03:33 33.93538 -118.40380 96 ft 35 kts 274°
2026-04-22 03:33 33.93581 -118.40602 94 ft 24 kts 287°
2026-04-22 03:34 33.93592 -118.40789 94 ft 17 kts 266°
2026-04-22 03:34 33.93604 -118.40848 95 ft 0 kts 290°
2026-04-22 03:34 33.93605 -118.40853 95 ft 0 kts 291°